N9OJR Weather Reports


time (UTC)temp
F
wind
direction
speed
knots
gust
knots
rain 1hr
in
rain 24hr
in
rain mn
in
humidity
%
barometer
mb
20260505121827 61 336 0.9 1.7 0.00 0.00 0.00 78 1003.1
20260505121324 61 232 0.0 1.7 0.00 0.00 0.00 78 1002.9
20260505120820 61 194 0.9 1.7 0.00 0.00 0.00 78 1002.8
20260505120316 60 294 0.0 1.7 0.00 0.00 0.00 78 1002.8
20260505115814 60 189 0.9 1.7 0.00 0.00 0.00 78 1002.7
20260505115312 60 355 0.9 2.6 0.00 0.00 0.00 78 1002.7
20260505114810 60 260 0.0 1.7 0.00 0.00 0.00 79 1003.0
20260505114306 60 218 2.6 5.2 0.00 0.00 0.00 78 1003.0
20260505113803 61 30 0.9 5.2 0.00 0.00 0.00 78 1002.8
20260505113259 61 259 1.7 2.6 0.00 0.00 0.00 77 1003.0
20260505112755 61 253 0.9 5.2 0.00 0.00 0.00 77 1003.0
20260505112252 61 233 0.9 2.6 0.00 0.00 0.00 77 1002.8
20260505111747 61 262 0.9 1.7 0.00 0.00 0.00 76 1002.8
20260505111243 61 279 1.7 2.6 0.00 0.00 0.00 76 1002.8
20260505110739 61 212 0.9 4.3 0.00 0.00 0.00 77 1002.9
20260505110237 61 73 0.9 5.2 0.00 0.00 0.00 77 1002.7
20260505102212 61 250 0.9 2.6 0.00 0.00 0.00 78 1002.4
20260505101711 61 275 0.9 1.7 0.00 0.00 0.00 77 1002.5
20260505101206 61 292 0.0 0.9 0.00 0.00 0.00 77 1002.4
20260505100703 61 246 0.0 4.3 0.00 0.00 0.00 77 1002.4
20260505100200 61 225 0.0 4.3 0.00 0.00 0.00 77 1002.4
20260505095656 61 318 0.9 2.6 0.00 0.00 0.00 76 1002.4
20260505095154 61 312 0.9 2.6 0.00 0.00 0.00 77 1002.4
20260505094649 61 199 0.0 2.6 0.00 0.00 0.00 76 1002.4
20260505094146 61 12 1.7 2.6 0.00 0.00 0.00 76 1002.3
20260505093642 62 290 0.0 1.7 0.00 0.00 0.00 76 1002.1
20260505093140 62 320 0.9 1.7 0.00 0.00 0.00 76 1002.0
20260505092636 62 263 1.7 2.6 0.00 0.00 0.00 75 1002.1
20260505092135 62 135 2.6 6.1 0.00 0.00 0.00 75 1002.0
20260505091632 62 221 0.0 1.7 0.00 0.00 0.00 75 1002.0
20260505091130 62 279 0.0 2.6 0.00 0.00 0.00 74 1002.0
20260505090627 63 126 2.6 4.3 0.00 0.00 0.00 74 1001.8
20260505090126 63 135 0.9 6.1 0.00 0.00 0.00 73 1002.0
20260505085622 63 177 1.7 2.6 0.00 0.00 0.00 74 1001.6
20260505085121 63 69 1.7 2.6 0.00 0.00 0.00 73 1001.6
20260505084618 63 289 1.7 5.2 0.00 0.00 0.00 73 1001.6
20260505084116 64 93 4.3 6.1 0.00 0.00 0.00 73 1001.5
20260505083614 64 15 0.9 5.2 0.00 0.00 0.00 71 1001.5
20260505083110 64 22 1.7 5.2 0.00 0.00 0.00 71 1001.1
20260505082606 64 117 3.5 5.2 0.00 0.00 0.00 70 1001.0
20260505082103 64 269 3.5 6.1 0.00 0.00 0.00 71 1001.4
20260505081559 63 172 0.9 13.9 0.00 0.00 0.00 72 1001.5
20260505081056 64 131 1.7 5.2 0.00 0.00 0.00 73 1001.6
20260505080552 64 107 2.6 4.3 0.00 0.00 0.00 69 1001.2
20260505080049 64 109 1.7 6.1 0.00 0.00 0.00 70 1001.4
20260505075545 64 297 0.0 4.3 0.00 0.00 0.00 71 1001.1
20260505075042 64 182 2.6 2.6 0.00 0.00 0.00 72 1000.9
20260505074539 63 125 2.6 7.8 0.00 0.00 0.00 72 1000.9
20260505074036 63 283 0.9 4.3 0.00 0.00 0.00 74 1001.1
20260505073533 64 267 1.7 5.2 0.00 0.00 0.00 73 1000.8
20260505073032 65 105 2.6 5.2 0.00 0.00 0.00 68 1000.9
20260505072527 64 156 0.9 1.7 0.00 0.00 0.00 69 1001.1
20260505072024 64 134 0.0 2.6 0.00 0.00 0.00 69 1001.0
20260505071519 64 246 0.0 1.7 0.00 0.00 0.00 69 1000.9
20260505071018 65 234 0.9 4.3 0.00 0.00 0.00 68 1000.9
20260505070515 65 266 0.9 1.7 0.00 0.00 0.00 69 1000.7
20260505070011 65 160 1.7 4.3 0.00 0.00 0.00 68 1000.9
20260505065507 65 162 1.7 6.1 0.00 0.00 0.00 69 1001.0
20260505065004 64 290 0.9 5.2 0.00 0.00 0.00 68 1000.8
20260505064500 64 263 0.9 1.7 0.00 0.00 0.00 69 1001.1
20260505063959 65 291 0.0 2.6 0.00 0.00 0.00 69 1000.8
20260505063455 64 286 0.9 1.7 0.00 0.00 0.00 69 1000.9
20260505062951 65 285 0.9 1.7 0.00 0.00 0.00 69 1000.8
20260505062448 65 295 1.7 6.1 0.00 0.00 0.00 68 1001.0
20260505061945 65 342 0.9 1.7 0.00 0.00 0.00 69 1001.0
20260505061443 65 13 2.6 6.1 0.00 0.00 0.00 69 1001.1
20260505060941 65 231 0.9 2.6 0.00 0.00 0.00 69 1000.9
20260505060438 65 298 0.9 4.3 0.00 0.00 0.00 69 1001.1
20260505055934 65 325 0.9 1.7 0.00 0.00 0.00 69 1001.1
20260505055430 65 290 0.0 2.6 0.00 0.00 0.00 69 1001.2
20260505054927 65 229 1.7 1.7 0.00 0.00 0.00 69 1001.4
20260505054424 64 247 0.9 2.6 0.00 0.00 0.00 70 1001.6
20260505053922 64 204 0.9 1.7 0.00 0.00 0.00 71 1001.6
20260505053419 64 269 0.9 4.3 0.00 0.00 0.00 71 1001.5
20260505052916 64 245 0.9 1.7 0.00 0.00 0.00 72 1001.8
20260505052412 64 262 0.0 2.6 0.00 0.00 0.00 71 1001.7
20260505051910 64 263 0.0 1.7 0.00 0.00 0.00 72 1001.7
20260505051407 64 214 0.9 4.3 0.00 0.00 0.00 72 1002.0
20260505050905 64 224 0.9 1.7 0.00 0.00 0.00 72 1001.8
20260505050403 64 243 0.9 1.7 0.00 0.00 0.00 72 1001.8
20260505041331 64 234 0.9 1.7 0.00 0.00 0.00 72 1002.0
20260505040828 64 243 0.9 2.6 0.00 0.00 0.00 72 1002.0
20260505040325 64 265 0.9 2.6 0.00 0.00 0.00 72 1002.1
20260505035822 64 265 0.0 1.7 0.00 0.00 0.00 72 1001.9
20260505035317 64 305 0.9 2.6 0.00 0.00 0.00 72 1002.2
20260505034815 64 215 1.7 1.7 0.00 0.00 0.00 72 1002.2
20260505034311 63 241 2.6 4.3 0.00 0.00 0.00 72 1002.0
20260505033809 64 216 0.9 2.6 0.00 0.00 0.00 72 1002.2
20260505033306 63 223 4.3 6.1 0.00 0.00 0.00 72 1002.4
20260505032804 63 341 0.0 2.6 0.00 0.00 0.00 72 1002.2
20260505032259 63 273 0.9 1.7 0.00 0.00 0.00 72 1002.4
20260505031757 63 289 0.9 2.6 0.00 0.00 0.00 72 1002.3
20260505031253 63 247 0.9 1.7 0.00 0.00 0.00 72 1002.2
20260505030751 63 275 0.9 1.7 0.00 0.00 0.00 72 1002.3
20260505030247 63 252 1.7 2.6 0.00 0.00 0.00 72 1002.5
20260505025742 63 229 0.0 1.7 0.00 0.00 0.00 71 1002.1
20260505025240 64 190 1.7 2.6 0.00 0.00 0.00 71 1002.1
20260505024738 64 346 0.9 4.3 0.00 0.00 0.00 71 1002.1
20260505024235 63 291 0.9 4.3 0.00 0.00 0.00 71 1002.1
20260505023733 64 267 2.6 4.3 0.00 0.00 0.00 71 1002.1
20260505023230 64 182 0.9 1.7 0.00 0.00 0.00 71 1002.2
20260505022727 64 268 1.7 5.2 0.00 0.00 0.00 70 1002.3
20260505022224 64 225 0.9 2.6 0.00 0.00 0.00 70 1002.2
20260505021721 64 300 0.0 4.3 0.00 0.00 0.00 71 1002.1
20260505021218 64 193 0.0 1.7 0.00 0.00 0.00 71 1002.1
20260505020713 64 229 1.7 2.6 0.00 0.00 0.00 71 1002.4
20260505020209 64 211 0.9 1.7 0.00 0.00 0.00 70 1002.3
20260505015706 64 253 0.0 2.6 0.00 0.00 0.00 70 1002.2
20260505015202 64 178 0.9 2.6 0.00 0.00 0.00 70 1002.2
20260505014659 64 88 1.7 4.3 0.00 0.00 0.00 69 1002.3
20260505014151 64 223 0.9 2.6 0.00 0.00 0.00 69 1002.3
20260505013648 64 147 1.7 1.7 0.00 0.00 0.00 69 1002.1
20260505013145 65 197 0.0 2.6 0.00 0.00 0.00 68 1002.2
20260505012644 65 219 1.7 2.6 0.00 0.00 0.00 68 1002.4
20260505012140 65 271 0.9 1.7 0.00 0.00 0.00 68 1002.1
20260505011636 65 179 0.9 0.9 0.00 0.00 0.00 67 1002.1
20260505011133 65 161 0.0 1.7 0.00 0.00 0.00 67 1001.9
20260505010628 65 224 0.9 1.7 0.00 0.00 0.00 66 1002.2
20260505010125 66 114 0.0 2.6 0.00 0.00 0.00 65 1002.5
20260505005621 66 238 0.0 1.7 0.00 0.00 0.00 65 1002.1
20260505005118 66 345 0.0 1.7 0.00 0.00 0.00 65 1002.0
20260505004615 66 21 0.9 2.6 0.00 0.00 0.00 64 1002.0
20260505004112 66 244 1.7 4.3 0.00 0.00 0.00 63 1002.0
20260505003609 67 158 1.7 5.2 0.00 0.00 0.00 62 1002.1
20260505003106 67 272 0.0 1.7 0.00 0.00 0.00 62 1001.9
20260505002601 67 257 2.6 4.3 0.00 0.00 0.00 61 1001.9
20260505002055 68 256 1.7 2.6 0.00 0.00 0.00 61 1001.8
20260505001552 68 240 1.7 4.3 0.00 0.00 0.00 61 1001.7
20260505001049 68 241 0.9 6.1 0.00 0.00 0.00 60 1001.5
20260505000547 68 229 2.6 6.1 0.00 0.00 0.00 59 1001.5
20260505000044 69 203 4.3 7.0 0.00 0.00 0.00 59 1001.4
20260504235541 69 175 0.9 2.6 0.00 0.00 0.00 58 1001.2
20260504235037 70 191 0.9 2.6 0.00 0.00 0.00 58 1001.1
20260504234534 70 257 0.9 5.2 0.00 0.00 0.00 58 1001.1
20260504234031 69 301 0.9 2.6 0.00 0.00 0.00 58 1001.4
20260504233527 69 231 1.7 1.7 0.00 0.00 0.00 59 1001.0
20260504233024 70 252 1.7 2.6 0.00 0.00 0.00 58 1001.0
20260504232521 69 138 1.7 2.6 0.00 0.00 0.00 59 1001.0
20260504232019 70 182 0.9 2.6 0.00 0.00 0.00 59 1000.8
20260504231515 70 126 0.9 4.3 0.00 0.00 0.00 58 1001.0
20260504231011 71 188 1.7 2.6 0.00 0.00 0.00 57 1001.0
20260504230508 71 191 1.7 4.3 0.00 0.00 0.00 56 1001.2
20260504230007 71 338 2.6 5.2 0.00 0.00 0.00 57 1001.2
20260504225503 71 348 0.9 4.3 0.00 0.00 0.00 57 1001.5
20260504225000 71 273 2.6 2.6 0.00 0.00 0.00 57 1001.2
20260504224456 71 238 1.7 2.6 0.00 0.00 0.00 57 1001.2
20260504223954 71 357 0.9 2.6 0.00 0.00 0.00 58 1001.5
20260504223450 70 274 0.9 2.6 0.00 0.00 0.00 58 1001.6
20260504222946 70 247 0.9 2.6 0.00 0.00 0.00 57 1001.6
20260504222444 71 96 1.7 5.2 0.00 0.00 0.00 58 1001.5
20260504221941 71 86 1.7 8.7 0.00 0.00 0.00 56 1001.4
20260504221438 71 33 1.7 7.8 0.00 0.00 0.00 55 1001.8
20260504220935 72 232 2.6 5.2 0.00 0.00 0.00 57 1001.8
20260504220431 72 100 1.7 5.2 0.00 0.00 0.00 55 1001.8
20260504215928 72 247 4.3 6.1 0.00 0.00 0.00 57 1001.7
20260504215425 71 319 1.7 7.8 0.00 0.00 0.00 59 1001.7
20260504214922 71 169 1.7 5.2 0.00 0.00 0.00 60 1001.4
20260504214418 71 287 1.7 7.0 0.00 0.00 0.00 58 1001.7
20260504213915 71 122 0.9 5.2 0.00 0.00 0.00 59 1001.5
20260504213410 72 19 0.9 5.2 0.00 0.00 0.00 58 1001.8
20260504212909 73 66 2.6 8.7 0.00 0.00 0.00 56 1001.6
20260504212404 72 164 1.7 4.3 0.00 0.00 0.00 57 1001.5
20260504211902 73 319 7.0 9.6 0.00 0.00 0.00 57 1001.6
20260504211358 73 249 1.7 2.6 0.00 0.00 0.00 58 1001.4
20260504210855 71 352 4.3 7.0 0.00 0.00 0.00 58 1001.7
20260504210352 71 239 1.7 4.3 0.00 0.00 0.00 58 1001.6
20260504205849 71 296 2.6 5.2 0.00 0.00 0.00 59 1001.9
20260504205347 71 234 0.9 5.2 0.00 0.00 0.00 59 1001.8
20260504204845 72 169 1.7 6.1 0.00 0.00 0.00 59 1001.8
20260504204343 73 243 1.7 2.6 0.00 0.00 0.00 57 1001.9
20260504203842 73 261 0.0 1.7 0.00 0.00 0.00 58 1001.9
20260504203339 71 156 1.7 2.6 0.00 0.00 0.00 58 1002.2
20260504202835 71 273 0.9 4.3 0.00 0.00 0.00 59 1002.2
20260504202332 72 138 2.6 7.0 0.00 0.00 0.00 57 1002.1
20260504201828 72 281 0.9 2.6 0.00 0.00 0.00 57 1002.1
20260504201326 72 351 1.7 6.1 0.00 0.00 0.00 56 1002.0
20260504200823 73 328 3.5 6.1 0.00 0.00 0.00 56 1002.4
20260504200320 73 305 3.5 6.1 0.00 0.00 0.00 56 1002.0
20260504195816 72 263 1.7 4.3 0.00 0.00 0.00 58 1002.1
20260504195312 71 159 2.6 4.3 0.00 0.00 0.00 57 1002.4
20260504194809 71 332 2.6 6.1 0.00 0.00 0.00 57 1002.5
20260504194305 72 79 4.3 7.0 0.00 0.00 0.00 55 1002.5
20260504193801 72 227 0.0 1.7 0.00 0.00 0.00 56 1002.6
20260504193259 72 253 1.7 1.7 0.00 0.00 0.00 57 1002.4
20260504192757 72 88 0.9 6.1 0.00 0.00 0.00 56 1002.4
20260504192255 72 300 2.6 5.2 0.00 0.00 0.00 57 1002.5
20260504191753 72 252 0.9 4.3 0.00 0.00 0.00 56 1002.8
20260504191250 72 63 0.9 2.6 0.00 0.00 0.00 58 1002.9
20260504190745 71 224 1.7 4.3 0.00 0.00 0.00 57 1002.8
20260504190242 71 261 1.7 5.2 0.00 0.00 0.00 58 1003.1
20260504185738 71 241 2.6 7.0 0.00 0.00 0.00 57 1003.1
20260504185235 71 133 1.7 4.3 0.00 0.00 0.00 56 1003.1
20260504184731 71 58 2.6 8.7 0.00 0.00 0.00 57 1003.2
20260504184227 71 9 3.5 5.2 0.00 0.00 0.00 57 1003.1
20260504183723 71 112 1.7 7.0 0.00 0.00 0.00 58 1003.1
20260504183220 70 217 1.7 4.3 0.00 0.00 0.00 61 1003.3
20260504182719 71 282 1.7 6.1 0.00 0.00 0.00 58 1003.4
20260504182215 70 208 2.6 4.3 0.00 0.00 0.00 58 1003.1
20260504181713 69 141 2.6 11.3 0.00 0.00 0.00 59 1003.3
20260504181210 70 326 2.6 7.0 0.00 0.00 0.00 59 1003.3
20260504180709 70 161 2.6 6.1 0.00 0.00 0.00 58 1003.2
20260504180208 70 159 0.9 4.3 0.00 0.00 0.00 59 1003.4
20260504175704 70 313 1.7 7.0 0.00 0.00 0.00 59 1003.4
20260504175201 69 143 2.6 6.1 0.00 0.00 0.00 58 1003.5
20260504174659 69 320 1.7 7.0 0.00 0.00 0.00 58 1003.7
20260504174156 70 148 2.6 5.2 0.00 0.00 0.00 58 1003.6
20260504173653 69 60 0.9 7.8 0.00 0.00 0.00 57 1003.4
20260504173150 69 124 1.7 5.2 0.00 0.00 0.00 57 1003.6
20260504172647 68 217 0.9 6.1 0.00 0.00 0.00 57 1003.7
20260504172143 69 168 1.7 4.3 0.00 0.00 0.00 56 1003.5
20260504171639 69 235 3.5 7.8 0.00 0.00 0.00 56 1003.7
20260504171137 69 237 1.7 4.3 0.00 0.00 0.00 56 1003.8
20260504170633 69 244 0.9 4.3 0.00 0.00 0.00 56 1003.8
20260504170131 69 225 1.7 4.3 0.00 0.00 0.00 58 1003.8
20260504151011 65 229 1.7 6.1 0.00 0.00 0.00 58 1005.0
20260504150508 66 335 2.6 4.3 0.00 0.00 0.00 59 1005.1
20260504140934 61 99 3.5 5.2 0.00 0.00 0.00 61 1005.2
20260504140430 61 336 1.7 7.8 0.00 0.00 0.00 61 1005.4
20260504130355 56 147 2.6 4.3 0.00 0.00 0.00 64 1006.0